Home > Weather > Sarnia > Past weeks

Flag for Canada Weather for the Past 2 Weeks in Sarnia, Ontario, Canada

Now
27 °F

Light snow. Mostly cloudy.


Feels Like: 14 °F
Forecast: 11 / 27 °F
Wind: 16 mph from Northwest

Location: Sarnia Airport

Current Time: Feb 9, 2016 at 8:54:44 PM

Latest Report: Feb 9, 2016 at 8:00 PM


Visibility: 3 mi

Pressure: 29.64 "Hg

Humidity: 93%

Dew point: 25 °F

Location of SarniaLocation

Historic Weather in Sarnia — Graph

°F

Sarnia Temperature Yesterday

Maximum temperature yesterday: 41 °F (at 12:00 AM)
Minimum temperature yesterday: 34 °F (at 3:01 PM)
Average temperature yesterday: 37 °F

High & Low Weather Summary for the Past Weeks

 TemperatureHumidityPressure
High57 °F (Feb 3, 12:00 PM)100% (Jan 27, 1:55 AM)30.37 "Hg (Jan 27, 1:55 AM)
Low19 °F (Jan 29, 8:46 AM)48% (Feb 6, 3:00 PM)29.47 "Hg (Feb 3, 7:00 AM)
Average34 °F83%29.87 "Hg
* Reported Jan 25 7:00 PM — Feb 9 7:00 PM, Sarnia, Weather by CustomWeather, © 2016

Note: Actual official high and low records may vary slightly from our data, if they occured in-between our weather recording intervals... More about our weather records

Advertising

Sarnia Weather History for the Previous 24 Hours

 ConditionsComfort  
Time TempWeatherWind HumidityBarometerVisibility
7:00 PM
Tue, Feb 9
27 °FLight snow. Overcast.16 mph93%29.63 "Hg1 mi
6:00 PM27 °FLight snow. Mostly cloudy.16 mph100%29.60 "Hg3 mi
5:00 PM28 °FLight snow. Mostly cloudy.17 mph93%29.57 "Hg1 mi
4:01 PM28 °FLight snow. More clouds than sun.16 mph93%29.55 "Hg2 mi
3:00 PM28 °FLight snow. More clouds than sun.15 mph93%29.54 "Hg1 mi
2:00 PM28 °FLight snow. More clouds than sun.14 mph93%29.53 "Hg3 mi
1:56 PM28 °FLight snow. More clouds than sun.12 mph93%29.53 "Hg3 mi
1:00 PM28 °FLight snow. Mostly cloudy.14 mph93%29.54 "Hg1 mi
12:00 PM28 °FLight snow. Ice fog.14 mph93%29.54 "Hg1 mi
11:00 AM28 °FLight snow. Mostly cloudy.14 mph93%29.54 "Hg3 mi
10:00 AM28 °FLight snow. More clouds than sun.14 mph100%29.53 "Hg1 mi
9:00 AM30 °FLight snow. Low clouds.12 mph93%29.52 "Hg1 mi
8:00 AM30 °FLight snow. Mostly cloudy.12 mph100%29.51 "Hg2 mi
7:50 AM30 °FLight snow. More clouds than sun.15 mph100%29.51 "Hg2 mi
7:00 AM32 °FLight snow. Overcast.9 mph93%29.49 "Hg1 mi
6:00 AM32 °FLight snow. Mostly cloudy.10 mph100%29.48 "Hg1 mi
5:00 AM34 °FLight snow. Mostly cloudy.10 mph93%29.47 "Hg4 mi
4:00 AM32 °FLight snow. Mostly cloudy.8 mph100%29.47 "Hg3 mi
3:00 AM32 °FLight snow. Mostly cloudy.9 mph100%29.49 "Hg3 mi
2:00 AM32 °FLight snow. Mostly cloudy.12 mph100%29.50 "Hg2 mi
1:55 AM34 °FLight snow. Mostly cloudy.12 mph93%29.50 "Hg2 mi
1:02 AM34 °FLight snow. Mostly cloudy.8 mph93%29.52 "Hg6 mi
12:00 AM34 °FLight rain. Mostly cloudy.12 mph93%29.52 "Hg9 mi
11:00 PM
Mon, Feb 8
34 °FLight rain. Overcast.9 mph100%29.54 "Hg9 mi
10:00 PM34 °FLight rain. Overcast.8 mph100%29.55 "Hg9 mi
9:04 PM34 °FLight rain. Mostly cloudy.6 mph100%29.57 "Hg8 mi
8:00 PM34 °FLight rain. Mostly cloudy.9 mph100%29.58 "Hg9 mi
Weather by CustomWeather, © 2016

See weather overviewHow to use our weather pages